User: anonymous   Login
Location: Sungai Anya
(2.6167°N, 114.0500°E)
Time: 11:09:54
(UTC+00:00)
Language:

FENGYUN 1C DEB - Orbit

View from above orbital plane
View from above orbital plane
View from above satellite
View from above satellite

Ground track
Ground track

The orbit data is extracted from the following two-line orbital elements,

1 31493U 99025BWG 22224.67744209  .00000552  00000-0  46902-3 0  9992
2 31493 100.1817  43.6836 0124665 126.0262 235.2521 13.88801257429360
Epoch (UTC): 12 August 2022 16:15:30
Eccentricity: 0.0124665
inclination: 100.1817°
perigee height: 841 km
apogee height: 1024 km
right ascension of ascending node: 43.6836°
argument of perigee: 126.0262°
revolutions per day: 13.88801257
mean anomaly at epoch: 235.2521°
orbit number at epoch: 42936

The dashed part of the orbit path shows where the satellite is in the earth's shadow,  

DLR